ZHONGXING-6D

Last updated on Sat Aug 15 2026 00:03:02 GMT+0000 (Coordinated Universal Time)

1 52255U 22038A 26224.76020881 -.00000371 00000+0 00000+0 0 9992 2 52255 0.0518 247.2562 0001369 321.7170 150.9995 1.00271893 15996
UTC large
Height (km)
Speed (km/s)
/
Latitude / Longitude
Inclination (degrees)
Orbital Period (minutes)
Azimuth
Elevation
Range (km)
Doppler Factor

Next 0 passes for location: London (51.5072 / 0.1276)

No passes found over London.
ZHONGXING-6D